N7NKE Weather Reports


time (UTC)temp
C
wind
direction
speed
KPH
gust
KPH
rain 1hr
cm
rain 24hr
cm
rain mn
cm
humidity
%
barometer
mb
20260506112005 13 342 1.6 3.2 0.00 0.00 0.00 85 1018.8
20260506111005 13 0 1.6 3.2 0.00 0.00 0.00 85 1018.7
20260506110505 13 320 3.2 9.7 0.00 0.00 0.00 86 1018.8
20260506110005 13 323 3.2 4.8 0.00 0.00 0.00 86 1018.7
20260506105505 13 0 1.6 4.8 0.00 0.00 0.00 86 1018.6
20260506105005 13 9 4.8 11.3 0.00 0.00 0.00 86 1018.5
20260506104505 13 337 1.6 4.8 0.00 0.00 0.00 87 1018.5
20260506104005 13 19 0.0 3.2 0.00 0.00 0.00 87 1018.3
20260506103505 13 7 1.6 3.2 0.00 0.00 0.00 87 1018.2
20260506103006 13 18 0.0 3.2 0.00 0.00 0.00 87 1018.3
20260506102505 13 12 0.0 3.2 0.00 0.00 0.00 87 1018.2
20260506102005 13 17 0.0 0.0 0.00 0.00 0.00 87 1018.1
20260506101505 13 17 1.6 3.2 0.00 0.00 0.00 87 1018.1
20260506101005 13 16 0.0 3.2 0.00 0.00 0.00 87 1018.0
20260506100505 13 11 1.6 1.6 0.00 0.00 0.00 87 1017.9
20260506095505 13 0 0.0 3.2 0.00 0.00 0.00 87 1017.8
20260506095005 13 0 0.0 1.6 0.00 0.00 0.00 87 1017.7
20260506094505 13 0 0.0 3.2 0.00 0.00 0.00 87 1017.7
20260506094005 13 26 0.0 3.2 0.00 0.00 0.00 87 1017.8
20260506093505 13 32 3.2 3.2 0.00 0.00 0.00 87 1017.7
20260506093005 13 34 1.6 3.2 0.00 0.00 0.00 87 1017.7
20260506092005 13 34 0.0 3.2 0.00 0.00 0.00 87 1017.7
20260506091005 13 14 1.6 3.2 0.00 0.00 0.00 87 1017.7
20260506090505 13 13 0.0 3.2 0.00 0.00 0.00 87 1017.7
20260506090006 13 13 0.0 0.0 0.00 0.00 0.00 87 1017.7
20260506085505 13 13 0.0 3.2 0.00 0.00 0.00 87 1017.6
20260506085005 13 13 0.0 3.2 0.00 0.00 0.00 87 1017.7
20260506082505 14 6 1.6 3.2 0.00 0.00 0.00 87 1017.6
20260506082006 14 6 0.0 3.2 0.00 0.00 0.00 87 1017.6
20260506081505 14 6 1.6 3.2 0.00 0.00 0.00 87 1017.6
20260506081005 14 6 0.0 3.2 0.00 0.00 0.00 86 1017.6
20260506080504 14 6 1.6 3.2 0.00 0.00 0.00 87 1017.6
20260506073505 14 71 0.0 0.0 0.00 0.00 0.00 86 1017.3
20260506073005 14 71 0.0 0.0 0.00 0.00 0.00 86 1017.2
20260506072505 14 71 0.0 0.0 0.00 0.00 0.00 86 1017.2
20260506072005 14 71 0.0 0.0 0.00 0.00 0.00 86 1017.2
20260506071505 14 71 0.0 0.0 0.00 0.00 0.00 86 1017.1
20260506071005 15 71 0.0 0.0 0.00 0.00 0.00 86 1017.1
20260506061505 15 71 0.0 0.0 0.00 0.00 0.00 85 1016.8
20260506061005 15 71 0.0 0.0 0.00 0.00 0.00 85 1016.8
20260506060504 15 71 0.0 0.0 0.00 0.00 0.00 85 1016.8
20260506050504 15 71 0.0 0.0 0.00 0.00 0.00 83 1016.5
20260506045005 15 71 0.0 0.0 0.00 0.00 0.00 83 1016.5
20260506044505 15 71 0.0 0.0 0.00 0.00 0.00 84 1016.5
20260506043505 14 71 0.0 0.0 0.00 0.00 0.00 84 1016.3
20260506043005 14 71 0.0 0.0 0.00 0.00 0.00 84 1016.3
20260506042504 14 71 0.0 0.0 0.00 0.00 0.00 84 1016.3
20260506041505 14 71 0.0 0.0 0.00 0.00 0.00 83 1016.2
20260506041005 14 71 0.0 0.0 0.00 0.00 0.00 83 1016.2
20260506040504 14 71 0.0 0.0 0.00 0.00 0.00 83 1016.1
20260506040006 14 71 0.0 0.0 0.00 0.00 0.00 83 1016.0
20260506035505 15 71 0.0 0.0 0.00 0.00 0.00 82 1016.0
20260506034505 15 71 0.0 0.0 0.00 0.00 0.00 82 1015.8
20260506034005 15 71 0.0 1.6 0.00 0.00 0.00 82 1015.8
20260506033505 15 70 1.6 1.6 0.00 0.00 0.00 81 1015.7
20260506033007 15 70 1.6 1.6 0.00 0.00 0.00 81 1015.6
20260506032504 15 70 1.6 3.2 0.00 0.00 0.00 80 1015.6
20260506032005 16 71 1.6 3.2 0.00 0.00 0.00 80 1015.5
20260506031506 16 71 0.0 1.6 0.00 0.00 0.00 79 1015.5
20260506031005 16 70 1.6 3.2 0.00 0.00 0.00 79 1015.4
20260506030504 16 71 0.0 1.6 0.00 0.00 0.00 78 1015.4
20260506030005 17 0 0.0 0.0 0.00 0.00 0.00 77 1015.4
20260506025505 17 0 0.0 0.0 0.00 0.00 0.00 76 1015.3
20260506025005 17 0 0.0 3.2 0.00 0.00 0.00 75 1015.2
20260506024505 18 71 0.0 3.2 0.00 0.00 0.00 74 1015.2
20260506024005 18 71 1.6 3.2 0.00 0.00 0.00 74 1015.1
20260506023505 18 71 1.6 1.6 0.00 0.00 0.00 73 1015.1
20260506023005 19 70 1.6 3.2 0.00 0.00 0.00 71 1015.0
20260506022505 19 70 1.6 3.2 0.00 0.00 0.00 71 1015.0
20260506022005 19 70 1.6 1.6 0.00 0.00 0.00 70 1015.0
20260506021505 19 70 1.6 3.2 0.00 0.00 0.00 70 1015.0
20260506020504 19 52 1.6 3.2 0.00 0.00 0.00 69 1015.0
20260506020005 19 47 3.2 3.2 0.00 0.00 0.00 69 1015.0
20260506015504 19 50 3.2 4.8 0.00 0.00 0.00 68 1014.9
20260506015005 19 36 1.6 8.0 0.00 0.00 0.00 68 1015.0
20260506014505 20 70 3.2 8.0 0.00 0.00 0.00 68 1015.0
20260506014005 20 350 1.6 1.6 0.00 0.00 0.00 68 1014.9
20260506013504 20 40 1.6 4.8 0.00 0.00 0.00 67 1014.9
20260506012504 20 8 1.6 3.2 0.00 0.00 0.00 68 1015.1
20260506012005 19 121 1.6 4.8 0.00 0.00 0.00 65 1015.1
20260506011506 20 50 4.8 9.7 0.00 0.00 0.00 68 1015.1
20260506011005 19 325 1.6 3.2 0.00 0.00 0.00 68 1015.1
20260506010006 18 36 3.2 3.2 0.00 0.00 0.00 69 1015.2
20260506005505 18 89 3.2 4.8 0.00 0.00 0.00 69 1015.2
20260506005005 18 77 4.8 11.3 0.00 0.00 0.00 68 1015.1
20260506004505 19 66 4.8 8.0 0.00 0.00 0.00 69 1015.1
20260506004004 19 51 3.2 11.3 0.00 0.00 0.00 69 1015.1
20260506003504 18 69 3.2 9.7 0.00 0.00 0.00 68 1015.2
20260506003004 19 14 1.6 3.2 0.00 0.00 0.00 69 1015.2
20260506002505 19 12 1.6 8.0 0.00 0.00 0.00 68 1015.2
20260506002005 19 88 6.4 12.9 0.00 0.00 0.00 68 1015.2
20260506001004 19 82 3.2 3.2 0.00 0.00 0.00 68 1015.3
20260506000505 19 78 4.8 8.0 0.00 0.00 0.00 68 1015.3
20260506000005 19 352 1.6 4.8 0.00 0.00 0.00 68 1015.4
20260505235505 18 30 3.2 12.9 0.00 0.00 0.00 68 1015.4
20260505234505 18 78 3.2 9.7 0.00 0.00 0.00 69 1015.5
20260505234005 18 17 3.2 4.8 0.00 0.00 0.00 69 1015.5
20260505233505 18 121 1.6 4.8 0.00 0.00 0.00 68 1015.5
20260505233005 18 55 4.8 8.0 0.00 0.00 0.00 70 1015.6
20260505232505 18 119 4.8 8.0 0.00 0.00 0.00 69 1015.7
20260505232004 18 97 3.2 8.0 0.00 0.00 0.00 72 1015.8
20260505231504 17 54 6.4 12.9 0.00 0.00 0.00 71 1015.8
20260505231004 17 239 1.6 4.8 0.00 0.00 0.00 71 1015.8
20260505230505 17 57 4.8 14.5 0.00 0.00 0.00 72 1015.8
20260505230005 17 93 4.8 9.7 0.00 0.00 0.00 72 1015.8
20260505225505 17 68 8.0 12.9 0.00 0.00 0.00 72 1015.9
20260505225004 17 5 1.6 8.0 0.00 0.00 0.00 72 1015.9
20260505224505 17 88 3.2 8.0 0.00 0.00 0.00 72 1016.0
20260505224005 17 326 3.2 8.0 0.00 0.00 0.00 72 1016.0
20260505223505 17 69 1.6 4.8 0.00 0.00 0.00 71 1016.0
20260505223005 17 82 3.2 11.3 0.00 0.00 0.00 72 1016.0
20260505222505 17 43 1.6 8.0 0.00 0.00 0.00 73 1016.0
20260505222005 17 68 1.6 8.0 0.00 0.00 0.00 73 1016.1
20260505221506 17 57 3.2 9.7 0.00 0.00 0.00 73 1016.1
20260505221005 17 345 3.2 8.0 0.00 0.00 0.00 72 1016.1
20260505220504 17 86 1.6 4.8 0.00 0.00 0.00 73 1016.1
20260505220004 17 1 3.2 12.9 0.00 0.00 0.00 73 1016.2
20260505215505 17 71 3.2 4.8 0.00 0.00 0.00 74 1016.2
20260505215005 17 68 3.2 8.0 0.00 0.00 0.00 74 1016.2
20260505214504 17 22 3.2 8.0 0.00 0.00 0.00 74 1016.2
20260505214005 17 12 3.2 11.3 0.00 0.00 0.00 73 1016.2
20260505213505 17 338 1.6 3.2 0.00 0.00 0.00 74 1016.2
20260505213005 16 359 3.2 4.8 0.00 0.00 0.00 74 1016.3
20260505212505 16 313 3.2 8.0 0.00 0.00 0.00 76 1016.3
20260505212005 16 349 3.2 8.0 0.00 0.00 0.00 76 1016.3
20260505211505 16 2 3.2 8.0 0.00 0.00 0.00 75 1016.3
20260505211004 16 8 4.8 9.7 0.00 0.00 0.00 76 1016.3
20260505210505 16 70 4.8 12.9 0.00 0.00 0.00 76 1016.4
20260505210006 16 343 3.2 8.0 0.00 0.00 0.00 76 1016.4
20260505205504 16 341 4.8 8.0 0.00 0.00 0.00 75 1016.4
20260505205005 16 4 4.8 14.5 0.00 0.00 0.00 75 1016.5
20260505204505 16 12 3.2 8.0 0.00 0.00 0.00 76 1016.5
20260505204004 16 329 3.2 9.7 0.00 0.00 0.00 75 1016.6
20260505203505 16 334 4.8 9.7 0.00 0.00 0.00 75 1016.6
20260505203005 16 319 1.6 4.8 0.00 0.00 0.00 77 1016.7
20260505202505 16 324 3.2 4.8 0.00 0.00 0.00 77 1016.6
20260505202004 15 351 1.6 8.0 0.00 0.00 0.00 78 1016.7
20260505201505 15 0 3.2 8.0 0.00 0.00 0.00 78 1016.7
20260505201004 15 0 3.2 4.8 0.00 0.00 0.00 79 1016.7
20260505200005 15 0 3.2 4.8 0.00 0.00 0.00 79 1016.9
20260505195504 15 0 3.2 4.8 0.00 0.00 0.00 80 1016.8
20260505194505 15 0 1.6 3.2 0.00 0.00 0.00 81 1016.8
20260505194004 14 0 1.6 4.8 0.00 0.00 0.00 81 1016.8
20260505193505 14 0 3.2 8.0 0.00 0.00 0.00 81 1016.9
20260505192504 15 0 3.2 4.8 0.00 0.00 0.00 80 1016.9
20260505192005 15 0 1.6 4.8 0.00 0.00 0.00 80 1016.8
20260505191005 15 0 3.2 8.0 0.00 0.00 0.00 81 1016.9
20260505190005 14 0 3.2 4.8 0.00 0.00 0.00 83 1016.8
20260505185505 14 75 3.2 8.0 0.00 0.00 0.00 83 1016.9
20260505185005 13 75 1.6 3.2 0.00 0.00 0.00 84 1016.8
20260505184505 13 11 1.6 3.2 0.00 0.00 0.00 84 1016.8
20260505184005 13 0 1.6 4.8 0.00 0.00 0.00 83 1016.8
20260505183505 13 351 3.2 4.8 0.00 0.00 0.00 84 1016.8
20260505183005 13 11 3.2 4.8 0.00 0.00 0.00 84 1016.7
20260505182504 13 1 3.2 4.8 0.00 0.00 0.00 84 1016.7
20260505181504 13 0 1.6 3.2 0.00 0.00 0.00 85 1016.8
20260505181004 13 0 1.6 3.2 0.00 0.00 0.00 85 1016.7
20260505180505 13 331 1.6 3.2 0.00 0.00 0.00 85 1016.7
20260505180005 13 0 3.2 4.8 0.00 0.00 0.00 85 1016.6
20260505175505 13 0 4.8 8.0 0.00 0.00 0.00 85 1016.6
20260505175004 13 0 1.6 3.2 0.00 0.00 0.00 86 1016.6
20260505174505 13 0 1.6 3.2 0.00 0.00 0.00 86 1016.6
20260505174005 13 0 0.0 3.2 0.00 0.00 0.00 86 1016.7
20260505173504 13 0 0.0 1.6 0.00 0.00 0.00 87 1016.6
20260505173005 13 0 1.6 3.2 0.00 0.00 0.00 87 1016.6
20260505172504 13 11 1.6 3.2 0.00 0.00 0.00 88 1016.6
20260505172005 13 68 0.0 3.2 0.00 0.00 0.00 88 1016.4
20260505171505 12 0 0.0 3.2 0.00 0.00 0.00 88 1016.5
20260505171005 12 0 1.6 3.2 0.00 0.00 0.00 89 1016.5
20260505170005 12 0 0.0 3.2 0.00 0.00 0.00 89 1016.4
20260505165504 12 76 0.0 3.2 0.00 0.00 0.00 89 1016.4
20260505164504 12 47 0.0 3.2 0.00 0.00 0.00 90 1016.3
20260505164004 12 53 1.6 3.2 0.00 0.00 0.00 90 1016.3
20260505162504 12 90 1.6 3.2 0.00 0.00 0.00 90 1016.3
20260505162004 12 90 1.6 3.2 0.00 0.00 0.00 90 1016.2
20260505160504 12 90 1.6 3.2 0.00 0.00 0.00 90 1016.2
20260505153005 12 90 1.6 1.6 0.00 0.00 0.00 90 1016.1
20260505152504 12 90 1.6 3.2 0.00 0.00 0.00 90 1016.1
20260505152004 12 90 0.0 3.2 0.00 0.00 0.00 89 1016.0
20260505151505 12 90 1.6 3.2 0.00 0.00 0.00 89 1016.0
20260505151004 12 90 0.0 3.2 0.00 0.00 0.00 89 1016.0
20260505150504 12 90 1.6 1.6 0.00 0.00 0.00 89 1015.9
20260505140504 12 136 0.0 0.0 0.00 0.00 0.00 88 1015.5
20260505125004 12 209 1.6 3.2 0.00 0.00 0.00 87 1015.0
20260505124504 12 186 1.6 3.2 0.00 0.00 0.00 87 1015.0
20260505124005 12 171 0.0 3.2 0.00 0.00 0.00 87 1015.1
20260505123504 12 171 1.6 3.2 0.00 0.00 0.00 87 1015.0
20260505123005 12 213 3.2 3.2 0.00 0.00 0.00 87 1015.0
20260505122505 12 217 1.6 3.2 0.00 0.00 0.00 87 1015.0
20260505122004 12 178 3.2 4.8 0.00 0.00 0.00 87 1015.0
20260505121504 12 159 0.0 4.8 0.00 0.00 0.00 87 1015.0
20260505121004 12 167 0.0 4.8 0.00 0.00 0.00 87 1014.9
20260505120505 12 167 3.2 8.0 0.00 0.00 0.00 87 1014.9
20260505115504 11 32 0.0 3.2 0.00 0.00 0.00 87 1014.9
20260505115005 11 352 0.0 3.2 0.00 0.00 0.00 88 1014.8
20260505114505 11 329 1.6 3.2 0.00 0.00 0.00 89 1014.8
20260505114004 12 7 1.6 1.6 0.00 0.00 0.00 89 1014.8
20260505113505 11 88 1.6 3.2 0.00 0.00 0.00 89 1014.8
20260505113004 11 88 0.0 3.2 0.00 0.00 0.00 89 1014.8
20260505112505 11 163 0.0 0.0 0.00 0.00 0.00 89 1014.8